AirNav   Everest Fuels
 
 1215 users online  

MA76 Waltham Weston Hospital & Medical Center Heliport
Waltham, Massachusetts, USA

GOING TO WALTHAM?


FAA INFORMATION EFFECTIVE 10 SEPTEMBER 2020

Location

FAA Identifier: MA76
Lat/Long: 42-22-03.3460N 071-14-53.2010W
42-22.055767N 071-14.886683W
42.3675961,-71.2481114
(estimated)
Elevation: 75 ft. / 23 m (estimated)
Variation: 16W (1985)
Time zone: UTC -4 (UTC -5 during Standard Time)
Zip code: 02453

Heliport Operations

Heliport use: Private use, MEDICAL USE.
Control tower: no
ARTCC: BOSTON CENTER
FSS: BRIDGEPORT FLIGHT SERVICE STATION
Attendance: UNATNDD
Wind indicator: no
Segmented circle: no

Heliport Communications

WX ASOS at BED (6 nm N): 124.6 (781-274-9733)
WX ASOS at BOS (11 nm E): PHONE 617-567-5762
WX ASOS at OWD (11 nm S): 119.95 (781-762-4314)
WX ASOS at BVY (20 nm NE): PHONE 978-921-5042

Nearby radio navigation aids

VOR radial/distance  VOR name  Freq  Var
BOSr289/11.5BOSTON VOR/DME112.7016W
LWMr212/23.4LAWRENCE VOR/DME112.5015W
MHTr185/30.5MANCHESTER VOR/DME114.4015W
PUTr061/36.3PUTNAM VOR/DME117.4014W
GDMr121/37.4GARDNER VOR/DME110.6014W
PVDr026/39.4PROVIDENCE VOR/DME115.6014W

Heliport Services

Runway Information

Helipad H1

Dimensions: 100 x 100 ft. / 30 x 30 m
Surface: asphalt
Latitude: 42-22.055767N
Longitude: 071-14.886683W
Elevation: 75.0 ft.
Traffic pattern: leftleft
Obstructions: trees

Heliport Ownership and Management from official FAA records

Ownership: Privately-owned
Owner: WALTHAM WESTON HOSP & MED CTR
HOPE AVENUE
WALTHAM, MA 02254
Phone 617-647-6201
Manager: JAMES L SALSBURY, PRES
HOPE AVENUE
WALTHAM, MA 02254
Phone 617-647-6000

Additional Remarks

FOR CD CTC BOSTON APCH AT 603-594-5551.

Instrument Procedures

There are no published instrument procedures at MA76.

Some nearby airports with instrument procedures:

KBED - Laurence G Hanscom Field Airport (6 nm N)
KBOS - General Edward Lawrence Logan International Airport (11 nm E)
KOWD - Norwood Memorial Airport (11 nm S)
6B6 - Minute Man Air Field (13 nm NW)
1B6 - Hopedale Industrial Park Airport (20 nm SW)
KBVY - Beverly Regional Airport (20 nm NE)
 
Loc | Ops | Rwys | IFR | FBO | Links
Com | Nav | Svcs | Stats | Notes
Area around MA76 (Waltham Weston Hospital & Medical Center Heliport)
 
Road maps at: MapQuest Bing Google
 
Aerial photo
No photo
 
Sectional chart

 
Airport distance calculator
Flying to Waltham Weston Hospital & Medical Center Heliport? Find the distance to fly.

From to MA76

Sunrise and sunset
Times for 18-Sep-2020
 Local
(UTC-4)
 Zulu
(UTC)
Morning civil twilight06:0210:02
Sunrise06:3010:30
Sunset18:4822:48
Evening civil twilight19:1623:16

Current date and time
Zulu (UTC)  18-Sep-2020 13:17:17
Local (UTC-4)  18-Sep-2020 09:17:17
 
METAR
KBED 
6nm N 
181251Z 02009KT 10SM SCT020 BKN085 15/08 A3000 RMK AO2 SLP171 T01500083
KBOS 
10nm E 
181254Z 01015KT 10SM BKN032 BKN043 OVC250 14/08 A3000 RMK AO2 SLP159 T01390078
KMQE 
11nm SE 
181251Z AUTO 02010G16KT 13/09 A2998 RMK AO1 SLP162 T01330089
KOWD 
12nm S 
181253Z 03011G18KT 10SM BKN033 BKN040 OVC050 16/09 A3000 RMK AO2 SLP157 T01560089
KBVY 
20nm NE 
181253Z 03009G18KT 10SM FEW042 OVC085 15/07 A3000 RMK AO2 SLP153 T01500067
TAF
KBED 
6nm N 
181126Z 1812/1912 02009KT P6SM SCT025 BKN050 FM181400 02011G21KT P6SM BKN025 FM181800 01011G22KT P6SM BKN035 FM182100 02010G19KT P6SM FEW080 FM190000 36008KT P6SM FEW250
KBOS 
10nm E 
181126Z 1812/1918 02014G22KT P6SM SCT025 BKN040 FM181400 02015G24KT P6SM OVC025 FM181800 02014G24KT P6SM BKN035 FM182300 02012KT P6SM FEW200 FM190200 35011KT P6SM SKC FM191500 02011G22KT P6SM FEW250
NOTAMs
Click for the latest NOTAMs
NOTAMs are issued by the DoD/FAA and will open in a separate window not controlled by AirNav.

 

 
 

Would you like to see your business listed on this page?

 If your business provides an interesting product or service to pilots, flight crews, aircraft, or users of the Waltham Weston Hospital & Medical Center Heliport, you should consider listing it here.  To start the listing process, click on the button below
 
Add a business
 

Other Pages about Waltham Weston Hospital & Medical Center Heliport

Update a link
 
Copyright © AirNav, LLC. All rights reserved. Privacy Policy  Contact